Location: Baller�as
(41.9020°N, 0.1554°W)
Time: 12:40:45
(UTC+00:00)

Cosmos 2251 Rocket - Pass Details

Date: 10 August 2020
Orbit: 764 x 792 km, 74.0° (Epoch: 21 September)

Event Time Altitude Azimuth Distance (km) Brightness Sun altitude
Rises 19:48:04 0° 211° (SSW) 3,221 6.8 -7.7°
Reaches altitude 10° 19:50:28 10° 216° (SW) 2,301 6.1 -8.1°
Maximum altitude 19:55:35 54° 293° (WNW) 934 4.4 -8.9°
Drops below altitude 10° 20:00:46 10° 11° (N) 2,333 6.3 -9.8°
Sets 20:03:14 0° 16° (NNE) 3,270 7.0 -10.2°
